Location: Mohawk View
(42.7837°N, 73.7885°W)
Time: 12:08:24
(UTC+00:00)

Lacrosse 5 - Pass Details

Date: 17 June 2021
Orbit: 715 x 724 km, 57.0° (Epoch: 21 July)

Event Time Altitude Azimuth Distance (km) Brightness Sun altitude
Rises 02:02:56 0° 311° (NW) 3,124 7.1 -12.8°
Reaches altitude 10° 02:05:19 10° 308° (NW) 2,202 5.8 -13.0°
Maximum altitude 02:10:20 63° 228° (SW) 799 2.1 -13.6°
Enters shadow 02:13:39 21° 153° (SSE) 1,583 3.0 -14.0°
